Camp Pendleton, CA

10:31 PM PST on December 09, 2016 (GMT -0800)
Camp Pendleton Marine Corps Air Station

Weather History for KNFG - February, 2013

Change the Weather History Date:

Monday, February 25, 2013

  Actual Average Record
Temperature  
Mean Temperature 50 °F -  
Max Temperature 69 °F 63 °F 82 °F (2016)
Min Temperature 30 °F 41 °F 30 °F (2013)
Degree Days  
Heating Degree Days 16    
Moisture  
Dew Point 26 °F    
Average Humidity 50    
Maximum Humidity 80    
Minimum Humidity 11    
Precipitation  
Precipitation 0.00 in - - ()
Sea Level Pressure  
Sea Level Pressure 30.16 in    
Wind  
Wind Speed 3 mph (West)    
Max Wind Speed 12 mph    
Max Gust Speed 17 mph    
Visibility 10 miles    
Events      
Averages and records for this station are not official NWS values.
T = Trace of Precipitation, MM = Missing Value Source: NWS Daily Summary

Daily Weather History Graph

Daily Weather History Graph

Search for Another Location

Airport or City:

Trip Planner

Search our weather history database for the weather conditions in past years. The results will help you decide how hot, cold, wet, or windy it might be!

Date:

Astronomy

Feb. 25, 2013 Rise Set
Actual Time 6:21 AM PST 5:43 PM PST
Civil Twilight 5:56 AM PST 6:08 PM PST
Nautical Twilight 5:28 AM PST 6:37 PM PST
Astronomical Twilight 4:59 AM PST 7:05 PM PST
Moon 5:57 PM PST (2/25) 5:56 AM PST (2/25)
Length of Visible Light 12h 11m
Length of Day
11h 21m
Full, 100% of the Moon is Illuminated
Feb 25
Full
Feb 25
Full
Mar 4
Last Quarter
Mar 11
New
Mar 19
First Quarter

Hourly Weather History & Observations

Time (PST) Temp. Windchill Dew Point Humidity Pressure Visibility Wind Dir Wind Speed Gust Speed Precip Events Conditions
12:55 AM 36.0 °F - 28.0 °F 73% 30.23 in 10.0 mi Calm Calm - N/A   Clear
1:55 AM 36.0 °F 33.3 °F 26.1 °F 67% 30.29 in 10.0 mi NE 3.5 mph - N/A   Clear
2:55 AM 33.1 °F - 24.1 °F 70% 30.22 in 10.0 mi Calm Calm - N/A   Clear
3:55 AM 33.1 °F - 24.1 °F 70% 30.22 in 10.0 mi Calm Calm - N/A   Clear
4:55 AM 30.9 °F - 23.0 °F 72% 30.22 in 10.0 mi Calm Calm - N/A   Clear
5:55 AM 30.0 °F - 23.0 °F 75% 30.22 in 10.0 mi Calm Calm - N/A   Clear
6:55 AM 33.1 °F - 24.1 °F 70% 30.23 in 10.0 mi Calm Calm - N/A   Clear
7:55 AM 42.1 °F - 27.0 °F 55% 30.22 in 10.0 mi Calm Calm - N/A   Clear
8:54 AM 55.0 °F - 25.0 °F 31% 30.20 in 10.0 mi Calm Calm - N/A   Clear
9:54 AM 64.9 °F - 17.1 °F 16% 30.19 in 10.0 mi ENE 4.6 mph - N/A   Clear
10:54 AM 68.0 °F - 10.9 °F 11% 30.18 in 10.0 mi SSE 4.6 mph - N/A   Clear
11:54 AM 69.1 °F - 19.9 °F 15% 30.16 in 10.0 mi WSW 10.4 mph - N/A   Clear
12:54 PM 66.0 °F - 21.9 °F 19% 30.14 in 10.0 mi WSW 11.5 mph 17.3 mph N/A   Clear
1:54 PM 68.0 °F - 21.0 °F 17% 30.12 in 10.0 mi West 11.5 mph 17.3 mph N/A   Clear
2:54 PM 66.9 °F - 23.0 °F 19% 30.12 in 10.0 mi West 11.5 mph 17.3 mph N/A   Clear
3:54 PM 64.0 °F - 23.0 °F 21% 30.11 in 10.0 mi West 10.4 mph - N/A   Partly Cloudy
4:54 PM 62.1 °F - 19.0 °F 19% 30.09 in 10.0 mi West 4.6 mph - N/A   Partly Cloudy
5:54 PM 55.9 °F - 37.9 °F 51% 30.09 in 10.0 mi SSW 4.6 mph - N/A   Partly Cloudy
6:54 PM 55.0 °F - 46.0 °F 72% 30.09 in 10.0 mi SW 4.6 mph - N/A   Partly Cloudy
7:54 PM 48.0 °F - 42.1 °F 80% 30.12 in 10.0 mi NNE 3.5 mph - N/A   Partly Cloudy
8:54 PM 46.0 °F 43.9 °F 33.1 °F 61% 30.13 in 10.0 mi NE 4.6 mph - N/A   Partly Cloudy
9:54 PM 42.1 °F 39.2 °F 33.1 °F 70% 30.13 in 10.0 mi NE 4.6 mph - N/A   Partly Cloudy
10:54 PM 41.0 °F - 32.0 °F 70% 30.12 in 10.0 mi Calm Calm - N/A   Clear
11:54 PM 36.0 °F - 30.0 °F 79% 30.11 in 10.0 mi Calm Calm - N/A   Partly Cloudy